Air Quality Table

TIMESTAMP NO2 SO2 O3 PM10 PM2.5 TEMP HUM AIRPRES WS WD NO
2022-01-21 05:00 5.44 µg/m3 1.47 µg/m3 89.05 µg/m3 9.5 µg/m3 10.64 µg/m3 11.06 °C 74.85 % 1,015.17 mbar 1.46 m/s 281.27 Deg 0.22 µg/m3
2022-01-21 04:00 4.28 µg/m3 1.47 µg/m3 90.2 µg/m3 9.53 µg/m3 17.24 µg/m3 11.27 °C 71.32 % 1,015.54 mbar 1.69 m/s 279.28 Deg 0.24 µg/m3
2022-01-21 03:00 2.58 µg/m3 1.32 µg/m3 85.94 µg/m3 9.37 µg/m3 19.62 µg/m3 11.44 °C 72.28 % 1,016.02 mbar 1.77 m/s 284.27 Deg 0.22 µg/m3
2022-01-21 02:00 3.04 µg/m3 1.44 µg/m3 85.83 µg/m3 12.46 µg/m3 17.47 µg/m3 11.42 °C 74.29 % 1,016.23 mbar 1.81 m/s 273.17 Deg 0.2 µg/m3
2022-01-21 01:00 3.42 µg/m3 1.41 µg/m3 83.97 µg/m3 16.39 µg/m3 7.97 µg/m3 11.74 °C 76.56 % 1,016.62 mbar 1.97 m/s 277.58 Deg 0.21 µg/m3
2022-01-21 00:00 6.85 µg/m3 1.55 µg/m3 77.32 µg/m3 21.3 µg/m3 3.3 µg/m3 11.96 °C 77.81 % 1,017.07 mbar 1.93 m/s 271.55 Deg 0.3 µg/m3
2022-01-20 23:00 15.41 µg/m3 1.65 µg/m3 70.28 µg/m3 32.27 µg/m3 4.77 µg/m3 11.98 °C 76.89 % 1,017.38 mbar 1.3 m/s 286.32 Deg 1.01 µg/m3
2022-01-20 22:00 17.48 µg/m3 1.52 µg/m3 70.54 µg/m3 37.01 µg/m3 4.31 µg/m3 11.93 °C 75.53 % 1,017.51 mbar 1.39 m/s 282.3 Deg 0.56 µg/m3
2022-01-20 21:00 43.9 µg/m3 1.67 µg/m3 39.73 µg/m3 36.41 µg/m3 1.3 µg/m3 11.53 °C 76.33 % 1,017.48 mbar 1.07 m/s 300.2 Deg 4.13 µg/m3
2022-01-20 20:00 42.37 µg/m3 1.57 µg/m3 44.28 µg/m3 25.63 µg/m3 0.74 µg/m3 11.98 °C 74.78 % 1,017.50 mbar 1.42 m/s 294.15 Deg 2.7 µg/m3
2022-01-20 19:00 49.49 µg/m3 1.69 µg/m3 38.53 µg/m3 16.45 µg/m3 1.48 µg/m3 12.53 °C 74.03 % 1,017.42 mbar 1.18 m/s 286.4 Deg 5.04 µg/m3
2022-01-20 18:00 30.91 µg/m3 1.47 µg/m3 56.28 µg/m3 17.7 µg/m3 2.96 µg/m3 13.11 °C 69.38 % 1,017.30 mbar 1.6 m/s 279.35 Deg 2.67 µg/m3
2022-01-20 17:00 24.28 µg/m3 1.23 µg/m3 64.69 µg/m3 18.14 µg/m3 5.91 µg/m3 13.89 °C 70.35 % 1,017.30 mbar 1.61 m/s 304.67 Deg 2.27 µg/m3
2022-01-20 16:00 20.61 µg/m3 1.42 µg/m3 68.42 µg/m3 19.05 µg/m3 6.05 µg/m3 14.12 °C 67.25 % 1,017.33 mbar 1.81 m/s 298.95 Deg 3.73 µg/m3
2022-01-20 15:00 22 µg/m3 1.36 µg/m3 66.23 µg/m3 15.69 µg/m3 7.69 µg/m3 14.4 °C 63.71 % 1,017.68 mbar 1.54 m/s 316.9 Deg 4.53 µg/m3
2022-01-20 14:00 15.57 µg/m3 1.63 µg/m3 71.34 µg/m3 12.37 µg/m3 8.9 µg/m3 14.32 °C 66.83 % 1,018.26 mbar 2.15 m/s 286.9 Deg 2.98 µg/m3
2022-01-20 13:00 20.01 µg/m3 1.36 µg/m3 66.01 µg/m3 13.56 µg/m3 10.8 µg/m3 14.05 °C 75.85 % 1,019.00 mbar 1.93 m/s 301.42 Deg 4.69 µg/m3
2022-01-20 12:00 11.51 µg/m3 1.47 µg/m3 74.51 µg/m3 18.15 µg/m3 13.5 µg/m3 14.68 °C 68.35 % 1,019.88 mbar 2.5 m/s 248.2 Deg 2.77 µg/m3
2022-01-20 11:00 8.35 µg/m3 1.01 µg/m3 76.59 µg/m3 19.31 µg/m3 7.67 µg/m3 14.19 °C 74.99 % 1,020.36 mbar 2.16 m/s 228.28 Deg 1.53 µg/m3
2022-01-20 10:00 14.2 µg/m3 1.33 µg/m3 74.37 µg/m3 24.21 µg/m3 5.24 µg/m3 14.16 °C 77.95 % 1,020.28 mbar 1.64 m/s 198.85 Deg 2.38 µg/m3
2022-01-20 09:00 49.14 µg/m3 1.34 µg/m3 38.79 µg/m3 14.27 µg/m3 4.94 µg/m3 13.16 °C 82.93 % 1,020.27 mbar 0.99 m/s 222.17 Deg 13.84 µg/m3
2022-01-20 08:00 68.85 µg/m3 1.61 µg/m3 27.48 µg/m3 9.63 µg/m3 5.55 µg/m3 12.14 °C 86.05 % 1,020.59 mbar 0.93 m/s 225.72 Deg 14.11 µg/m3
2022-01-20 07:00 36.12 µg/m3 1.51 µg/m3 50.94 µg/m3 8.28 µg/m3 6.4 µg/m3 11.44 °C 89.05 % 1,020.67 mbar 1.15 m/s 234.5 Deg 3.19 µg/m3

It is to be noted that the data is provisional and subject to quality assurance procedures. For validated data kindly refer your request to contact.air@era.org.mt